Hourly Data Report for August 25, 2003

SHERBROOKE A
QUEBEC

45°26'00.000" N
71°41'00.000" W
241.40 m
7028124
71610
YSC

Download Data

Hourly Data (August 2003)
Hourly Data Report for August 25, 2003
TIME
LST
Temp Definition
°C
Dew Point Definition
°C
Rel Hum Definition
%
Precip. Amount Definition
mm

Wind Dir Definition
10's deg

Wind Spd Definition
km/h
Visibility Definition
km
Stn Press Definition
kPa
Hmdx Definition


Wind Chill Definition


Weather Definition


00:00 11.8 9.1 84     0 15.0 98.52      
01:00 11.6 9.8 89     0 15.0 98.50      
02:00 12.7 9.3 80   21 4 15.0 98.45      
03:00 13.0 9.7 80   21 4 15.0 98.45      
04:00 13.3 9.9 80   22 6 15.0 98.42      
05:00 13.4 10.1 80   25 4 15.0 98.43      
06:00 14.0 10.5 79   25 9 15.0 98.43      
07:00 14.1 10.5 79   25 11 24.1 98.44     Cloudy
08:00 13.5 11.1 85   18 4 24.1 98.44     Rain
09:00 14.2 11.2 82   16 6 24.1 98.41     Cloudy
10:00 14.5 12.1 86     0 24.1 98.37     Rain
11:00 15.2 12.6 84   18 4 24.1 98.35     Cloudy
12:00 16.2 12.8 80   23 4 24.1 98.32     Rain
13:00 16.3 12.6 79   22 6 24.1 98.31     Cloudy
14:00 16.0 11.9 77   21 6 24.1 98.31     Cloudy
15:00 15.0 12.1 83   18 6 24.1 98.32     Drizzle
16:00 14.9 12.4 85   19 6 19.3 98.32     Cloudy
17:00 14.9 13.0 88     0 15.0 98.35      
18:00 14.5 13.1 91     0 11.3 98.39      
19:00 14.2 13.2 94     0 4.8 98.40      
20:00 14.2 13.4 95     0 8.0 98.44      
21:00 14.4 13.4 94     0 15.0 98.47      
22:00 14.6 13.6 94     0 9.7 98.50     Drizzle
23:00 14.7 13.8 94     0 6.4 98.51      

Notes on Data Quality.

Legend

  • E = Estimated
  • M = Missing
  • NA = Not Available*
  • [empty] = Indicates an unobserved value
Date modified: